Year,Month,Day,Hour,Minute,Value (Times are PST for temperature in C)
2017,07,04,00,00,12.80
2017,07,04,00,01,12.80
2017,07,04,00,02,12.80
2017,07,04,00,03,12.80
2017,07,04,00,04,12.80
2017,07,04,00,05,12.80
2017,07,04,00,06,12.70
2017,07,04,00,07,12.70
2017,07,04,00,08,12.70
2017,07,04,00,09,12.70
2017,07,04,00,10,12.70
2017,07,04,00,11,12.70
2017,07,04,00,12,12.70
2017,07,04,00,13,12.70
2017,07,04,00,14,12.70
2017,07,04,00,15,12.70
2017,07,04,00,16,12.60
2017,07,04,00,17,12.60
2017,07,04,00,18,12.60
2017,07,04,00,19,12.60
2017,07,04,00,20,12.60
2017,07,04,00,21,12.60
2017,07,04,00,22,12.60
2017,07,04,00,23,12.60
2017,07,04,00,24,12.50
2017,07,04,00,25,12.50
2017,07,04,00,26,12.50
2017,07,04,00,27,12.50
2017,07,04,00,28,12.40
2017,07,04,00,29,12.40
2017,07,04,00,30,12.40
2017,07,04,00,31,12.40
2017,07,04,00,32,12.30
2017,07,04,00,33,12.30
2017,07,04,00,34,12.30
2017,07,04,00,35,12.30
2017,07,04,00,36,12.30
2017,07,04,00,37,12.20
2017,07,04,00,38,12.20
2017,07,04,00,39,12.20
2017,07,04,00,40,12.10
2017,07,04,00,41,12.10
2017,07,04,00,42,12.10
2017,07,04,00,43,12.10
2017,07,04,00,44,12.00
2017,07,04,00,45,12.00
2017,07,04,00,46,12.00
2017,07,04,00,47,12.00
2017,07,04,00,48,12.00
2017,07,04,00,49,11.90
2017,07,04,00,50,11.90
2017,07,04,00,51,11.90
2017,07,04,00,52,11.80
2017,07,04,00,53,11.80
2017,07,04,00,54,11.80
2017,07,04,00,55,11.80
2017,07,04,00,56,11.80
2017,07,04,00,57,11.80
2017,07,04,00,58,11.80
2017,07,04,00,59,11.70
2017,07,04,01,00,11.70
2017,07,04,01,01,11.70
2017,07,04,01,02,11.70
2017,07,04,01,03,11.60
2017,07,04,01,04,11.60
2017,07,04,01,05,11.60
2017,07,04,01,06,11.60
2017,07,04,01,07,11.60
2017,07,04,01,08,11.60
2017,07,04,01,09,11.50
2017,07,04,01,10,11.40
2017,07,04,01,11,11.40
2017,07,04,01,12,11.40
2017,07,04,01,13,11.40
2017,07,04,01,14,11.40
2017,07,04,01,15,11.40
2017,07,04,01,16,11.40
2017,07,04,01,17,11.40
2017,07,04,01,18,11.40
2017,07,04,01,19,11.40
2017,07,04,01,20,11.40
2017,07,04,01,21,11.40
2017,07,04,01,22,11.40
2017,07,04,01,23,11.40
2017,07,04,01,24,11.40
2017,07,04,01,25,11.40
2017,07,04,01,26,11.40
2017,07,04,01,27,11.40
2017,07,04,01,28,11.40
2017,07,04,01,29,11.40
2017,07,04,01,30,11.40
2017,07,04,01,31,11.40
2017,07,04,01,32,11.40
2017,07,04,01,33,11.40
2017,07,04,01,34,11.30
2017,07,04,01,35,11.30
2017,07,04,01,36,11.30
2017,07,04,01,37,11.30
2017,07,04,01,38,11.30
2017,07,04,01,39,11.20
2017,07,04,01,40,11.20
2017,07,04,01,41,11.20
2017,07,04,01,42,11.20
2017,07,04,01,43,11.10
2017,07,04,01,44,11.10
2017,07,04,01,45,11.10
2017,07,04,01,46,11.10
2017,07,04,01,47,11.10
2017,07,04,01,48,11.10
2017,07,04,01,49,11.10
2017,07,04,01,50,11.00
2017,07,04,01,51,10.90
2017,07,04,01,52,10.90
2017,07,04,01,53,10.90
2017,07,04,01,54,10.90
2017,07,04,01,55,10.90
2017,07,04,01,56,10.90
2017,07,04,01,57,10.90
2017,07,04,01,58,10.90
2017,07,04,01,59,10.90
2017,07,04,02,00,10.90
2017,07,04,02,01,10.90
2017,07,04,02,02,10.90
2017,07,04,02,03,10.80
2017,07,04,02,04,10.80
2017,07,04,02,05,10.80
2017,07,04,02,06,10.70
2017,07,04,02,07,10.70
2017,07,04,02,08,10.70
2017,07,04,02,09,10.70
2017,07,04,02,10,10.70
2017,07,04,02,11,10.70
2017,07,04,02,12,10.60
2017,07,04,02,13,10.60
2017,07,04,02,14,10.60
2017,07,04,02,15,10.60
2017,07,04,02,16,10.60
2017,07,04,02,17,10.60
2017,07,04,02,18,10.60
2017,07,04,02,19,10.60
2017,07,04,02,20,10.60
2017,07,04,02,21,10.60
2017,07,04,02,22,10.60
2017,07,04,02,23,10.60
2017,07,04,02,24,10.60
2017,07,04,02,25,10.60
2017,07,04,02,26,10.60
2017,07,04,02,27,10.60
2017,07,04,02,28,10.60
2017,07,04,02,29,10.60
2017,07,04,02,30,10.60
2017,07,04,02,31,10.60
2017,07,04,02,32,10.60
2017,07,04,02,33,10.60
2017,07,04,02,34,10.60
2017,07,04,02,35,10.60
2017,07,04,02,36,10.60
2017,07,04,02,37,10.60
2017,07,04,02,38,10.60
2017,07,04,02,39,10.60
2017,07,04,02,40,10.60
2017,07,04,02,41,10.60
2017,07,04,02,42,10.50
2017,07,04,02,43,10.40
2017,07,04,02,44,10.40
2017,07,04,02,45,10.40
2017,07,04,02,46,10.40
2017,07,04,02,47,10.40
2017,07,04,02,48,10.40
2017,07,04,02,49,10.40
2017,07,04,02,50,10.40
2017,07,04,02,51,10.40
2017,07,04,02,52,10.30
2017,07,04,02,53,10.30
2017,07,04,02,54,10.30
2017,07,04,02,55,10.20
2017,07,04,02,56,10.20
2017,07,04,02,57,10.20
2017,07,04,02,58,10.20
2017,07,04,02,59,10.20
2017,07,04,03,00,10.10
2017,07,04,03,01,10.10
2017,07,04,03,02,10.10
2017,07,04,03,03,10.10
2017,07,04,03,04,10.10
2017,07,04,03,05,10.10
2017,07,04,03,06,10.10
2017,07,04,03,07,10.10
2017,07,04,03,08,10.10
2017,07,04,03,09,10.10
2017,07,04,03,10,10.10
2017,07,04,03,11,10.10
2017,07,04,03,12,10.00
2017,07,04,03,13,10.10
2017,07,04,03,14,10.10
2017,07,04,03,15,10.10
2017,07,04,03,16,10.10
2017,07,04,03,17,10.00
2017,07,04,03,18,9.90
2017,07,04,03,19,9.90
2017,07,04,03,20,9.90
2017,07,04,03,21,9.90
2017,07,04,03,22,9.90
2017,07,04,03,23,9.90
2017,07,04,03,24,9.90
2017,07,04,03,25,9.90
2017,07,04,03,26,9.90
2017,07,04,03,27,9.90
2017,07,04,03,28,9.90
2017,07,04,03,29,9.90
2017,07,04,03,30,9.90
2017,07,04,03,31,9.90
2017,07,04,03,32,9.90
2017,07,04,03,33,9.90
2017,07,04,03,34,9.90
2017,07,04,03,35,9.90
2017,07,04,03,36,9.90
2017,07,04,03,37,9.90
2017,07,04,03,38,9.90
2017,07,04,03,39,9.90
2017,07,04,03,40,9.90
2017,07,04,03,41,9.90
2017,07,04,03,42,9.90
2017,07,04,03,43,9.90
2017,07,04,03,44,9.90
2017,07,04,03,45,9.90
2017,07,04,03,46,9.90
2017,07,04,03,47,9.90
2017,07,04,03,48,9.90
2017,07,04,03,49,9.90
2017,07,04,03,50,9.90
2017,07,04,03,51,9.90
2017,07,04,03,52,9.90
2017,07,04,03,53,9.80
2017,07,04,03,54,9.80
2017,07,04,03,55,9.80
2017,07,04,03,56,9.70
2017,07,04,03,57,9.70
2017,07,04,03,58,9.70
2017,07,04,03,59,9.70
2017,07,04,04,00,9.70
2017,07,04,04,01,9.70
2017,07,04,04,02,9.70
2017,07,04,04,03,9.70
2017,07,04,04,04,9.70
2017,07,04,04,05,9.70
2017,07,04,04,06,9.70
2017,07,04,04,07,9.70
2017,07,04,04,08,9.70
2017,07,04,04,09,9.70
2017,07,04,04,10,9.70
2017,07,04,04,11,9.70
2017,07,04,04,12,9.70
2017,07,04,04,13,9.70
2017,07,04,04,14,9.70
2017,07,04,04,15,9.70
2017,07,04,04,16,9.60
2017,07,04,04,17,9.60
2017,07,04,04,18,9.60
2017,07,04,04,19,9.60
2017,07,04,04,20,9.60
2017,07,04,04,21,9.60
2017,07,04,04,22,9.60
2017,07,04,04,23,9.60
2017,07,04,04,24,9.60
2017,07,04,04,25,9.50
2017,07,04,04,26,9.50
2017,07,04,04,27,9.50
2017,07,04,04,28,9.50
2017,07,04,04,29,9.50
2017,07,04,04,30,9.50
2017,07,04,04,31,9.50
2017,07,04,04,32,9.50
2017,07,04,04,33,9.50
2017,07,04,04,34,9.50
2017,07,04,04,35,9.60
2017,07,04,04,36,9.60
2017,07,04,04,37,9.60
2017,07,04,04,38,9.60
2017,07,04,04,39,9.60
2017,07,04,04,40,9.60
2017,07,04,04,41,9.60
2017,07,04,04,42,9.60
2017,07,04,04,43,9.60
2017,07,04,04,44,9.60
2017,07,04,04,45,9.60
2017,07,04,04,46,9.60
2017,07,04,04,47,9.60
2017,07,04,04,48,9.50
2017,07,04,04,49,9.50
2017,07,04,04,50,9.50
2017,07,04,04,51,9.50
2017,07,04,04,52,9.50
2017,07,04,04,53,9.40
2017,07,04,04,54,9.40
2017,07,04,04,55,9.40
2017,07,04,04,56,9.40
2017,07,04,04,57,9.30
2017,07,04,04,58,9.30
2017,07,04,04,59,9.30
2017,07,04,05,00,9.30
2017,07,04,05,01,9.30
2017,07,04,05,02,9.20
2017,07,04,05,03,9.20
2017,07,04,05,04,9.20
2017,07,04,05,05,9.20
2017,07,04,05,06,9.20
2017,07,04,05,07,9.20
2017,07,04,05,08,9.20
2017,07,04,05,09,9.20
2017,07,04,05,10,9.20
2017,07,04,05,11,9.20
2017,07,04,05,12,9.20
2017,07,04,05,13,9.20
2017,07,04,05,14,9.20
2017,07,04,05,15,9.20
2017,07,04,05,16,9.20
2017,07,04,05,17,9.20
2017,07,04,05,18,9.20
2017,07,04,05,19,9.20
2017,07,04,05,20,9.20
2017,07,04,05,21,9.20
2017,07,04,05,22,9.20
2017,07,04,05,23,9.20
2017,07,04,05,24,9.20
2017,07,04,05,25,9.20
2017,07,04,05,26,9.20
2017,07,04,05,27,9.20
2017,07,04,05,28,9.20
2017,07,04,05,29,9.20
2017,07,04,05,30,9.20
2017,07,04,05,31,9.20
2017,07,04,05,32,9.20
2017,07,04,05,33,9.20
2017,07,04,05,34,9.20
2017,07,04,05,35,9.20
2017,07,04,05,36,9.20
2017,07,04,05,37,9.20
2017,07,04,05,38,9.20
2017,07,04,05,39,9.10
2017,07,04,05,40,9.10
2017,07,04,05,41,9.10
2017,07,04,05,42,9.10
2017,07,04,05,43,9.10
2017,07,04,05,44,9.10
2017,07,04,05,45,9.10
2017,07,04,05,46,9.10
2017,07,04,05,47,9.10
2017,07,04,05,48,9.10
2017,07,04,05,49,9.10
2017,07,04,05,50,9.10
2017,07,04,05,51,9.10
2017,07,04,05,52,9.10
2017,07,04,05,53,9.00
2017,07,04,05,54,9.00
2017,07,04,05,55,9.00
2017,07,04,05,56,9.00
2017,07,04,05,57,9.00
2017,07,04,05,58,9.00
2017,07,04,05,59,9.00
2017,07,04,06,00,9.00
2017,07,04,06,01,9.00
2017,07,04,06,02,9.00
2017,07,04,06,03,9.00
2017,07,04,06,04,9.00
2017,07,04,06,05,9.00
2017,07,04,06,06,9.00
2017,07,04,06,07,9.00
2017,07,04,06,08,9.10
2017,07,04,06,09,9.10
2017,07,04,06,10,9.10
2017,07,04,06,11,9.10
2017,07,04,06,12,9.10
2017,07,04,06,13,9.10
2017,07,04,06,14,9.20
2017,07,04,06,15,9.20
2017,07,04,06,16,9.20
2017,07,04,06,17,9.20
2017,07,04,06,18,9.30
2017,07,04,06,19,9.30
2017,07,04,06,20,9.40
2017,07,04,06,21,9.50
2017,07,04,06,22,9.60
2017,07,04,06,23,9.70
2017,07,04,06,24,9.70
2017,07,04,06,25,9.80
2017,07,04,06,26,9.80
2017,07,04,06,27,9.80
2017,07,04,06,28,9.90
2017,07,04,06,29,9.90
2017,07,04,06,30,9.90
2017,07,04,06,31,9.90
2017,07,04,06,32,10.00
2017,07,04,06,33,10.10
2017,07,04,06,34,10.10
2017,07,04,06,35,10.20
2017,07,04,06,36,10.20
2017,07,04,06,37,10.30
2017,07,04,06,38,10.50
2017,07,04,06,39,10.60
2017,07,04,06,40,10.80
2017,07,04,06,41,10.90
2017,07,04,06,42,11.10
2017,07,04,06,43,11.20
2017,07,04,06,44,11.30
2017,07,04,06,45,11.40
2017,07,04,06,46,11.50
2017,07,04,06,47,11.60
2017,07,04,06,48,11.70
2017,07,04,06,49,11.80
2017,07,04,06,50,11.80
2017,07,04,06,51,11.90
2017,07,04,06,52,12.00
2017,07,04,06,53,12.10
2017,07,04,06,54,12.20
2017,07,04,06,55,12.30
2017,07,04,06,56,12.40
2017,07,04,06,57,12.50
2017,07,04,06,58,12.50
2017,07,04,06,59,12.60
2017,07,04,07,00,12.60
2017,07,04,07,01,12.70
2017,07,04,07,02,12.90
2017,07,04,07,03,13.00
2017,07,04,07,04,13.20
2017,07,04,07,05,13.30
2017,07,04,07,06,13.40
2017,07,04,07,07,13.50
2017,07,04,07,08,13.60
2017,07,04,07,09,13.70
2017,07,04,07,10,13.80
2017,07,04,07,11,13.90
2017,07,04,07,12,14.00
2017,07,04,07,13,14.10
2017,07,04,07,14,14.20
2017,07,04,07,15,14.30
2017,07,04,07,16,14.40
2017,07,04,07,17,14.50
2017,07,04,07,18,14.50
2017,07,04,07,19,14.60
2017,07,04,07,20,14.60
2017,07,04,07,21,14.60
2017,07,04,07,22,14.70
2017,07,04,07,23,14.80
2017,07,04,07,24,14.80
2017,07,04,07,25,14.90
2017,07,04,07,26,15.00
2017,07,04,07,27,15.00
2017,07,04,07,28,15.00
2017,07,04,07,29,15.00
2017,07,04,07,30,14.90
2017,07,04,07,31,14.80
2017,07,04,07,32,14.80
2017,07,04,07,33,14.70
2017,07,04,07,34,14.60
2017,07,04,07,35,14.60
2017,07,04,07,36,14.50
2017,07,04,07,37,14.50
2017,07,04,07,38,14.60
2017,07,04,07,39,14.60
2017,07,04,07,40,14.60
2017,07,04,07,41,14.70
2017,07,04,07,42,14.80
2017,07,04,07,43,14.90
2017,07,04,07,44,14.90
2017,07,04,07,45,15.00
2017,07,04,07,46,15.10
2017,07,04,07,47,15.10
2017,07,04,07,48,15.20
2017,07,04,07,49,15.30
2017,07,04,07,50,15.30
2017,07,04,07,51,15.30
2017,07,04,07,52,15.40
2017,07,04,07,53,15.40
2017,07,04,07,54,15.50
2017,07,04,07,55,15.60
2017,07,04,07,56,15.70
2017,07,04,07,57,15.80
2017,07,04,07,58,15.90
2017,07,04,07,59,16.10
2017,07,04,08,00,16.20
2017,07,04,08,01,16.30
2017,07,04,08,02,16.30
2017,07,04,08,03,16.40
2017,07,04,08,04,16.40
2017,07,04,08,05,16.40
2017,07,04,08,06,16.40
2017,07,04,08,07,16.40
2017,07,04,08,08,16.50
2017,07,04,08,09,16.60
2017,07,04,08,10,16.70
2017,07,04,08,11,16.70
2017,07,04,08,12,16.90
2017,07,04,08,13,16.90
2017,07,04,08,14,17.00
2017,07,04,08,15,17.10
2017,07,04,08,16,17.20
2017,07,04,08,17,17.30
2017,07,04,08,18,17.30
2017,07,04,08,19,17.30
2017,07,04,08,20,17.30
2017,07,04,08,21,17.30
2017,07,04,08,22,17.30
2017,07,04,08,23,17.40
2017,07,04,08,24,17.40
2017,07,04,08,25,17.50
2017,07,04,08,26,17.50
2017,07,04,08,27,17.50
2017,07,04,08,28,17.60
2017,07,04,08,29,17.70
2017,07,04,08,30,17.80
2017,07,04,08,31,17.90
2017,07,04,08,32,17.90
2017,07,04,08,33,18.00
2017,07,04,08,34,18.10
2017,07,04,08,35,18.20
2017,07,04,08,36,18.20
2017,07,04,08,37,18.20
2017,07,04,08,38,18.20
2017,07,04,08,39,18.30
2017,07,04,08,40,18.30
2017,07,04,08,41,18.30
2017,07,04,08,42,18.30
2017,07,04,08,43,18.40
2017,07,04,08,44,18.40
2017,07,04,08,45,18.40
2017,07,04,08,46,18.50
2017,07,04,08,47,18.50
2017,07,04,08,48,18.50
2017,07,04,08,49,18.60
2017,07,04,08,50,18.70
2017,07,04,08,51,18.70
2017,07,04,08,52,18.80
2017,07,04,08,53,18.90
2017,07,04,08,54,18.80
2017,07,04,08,55,18.70
2017,07,04,08,56,18.70
2017,07,04,08,57,18.70
2017,07,04,08,58,18.60
2017,07,04,08,59,18.70
2017,07,04,09,00,18.70
2017,07,04,09,01,18.70
2017,07,04,09,02,18.70
2017,07,04,09,03,18.60
2017,07,04,09,04,18.60
2017,07,04,09,05,18.60
2017,07,04,09,06,18.60
2017,07,04,09,07,18.50
2017,07,04,09,08,18.50
2017,07,04,09,09,18.50
2017,07,04,09,10,18.50
2017,07,04,09,11,18.50
2017,07,04,09,12,18.60
2017,07,04,09,13,18.60
2017,07,04,09,14,18.70
2017,07,04,09,15,18.70
2017,07,04,09,16,18.70
2017,07,04,09,17,18.80
2017,07,04,09,18,18.80
2017,07,04,09,19,18.70
2017,07,04,09,20,18.70
2017,07,04,09,21,18.60
2017,07,04,09,22,18.50
2017,07,04,09,23,18.60
2017,07,04,09,24,18.60
2017,07,04,09,25,18.70
2017,07,04,09,26,18.80
2017,07,04,09,27,18.80
2017,07,04,09,28,18.90
2017,07,04,09,29,18.90
2017,07,04,09,30,18.90
2017,07,04,09,31,18.90
2017,07,04,09,32,19.00
2017,07,04,09,33,19.10
2017,07,04,09,34,19.10
2017,07,04,09,35,19.10
2017,07,04,09,36,19.10
2017,07,04,09,37,19.20
2017,07,04,09,38,19.30
2017,07,04,09,39,19.40
2017,07,04,09,40,19.50
2017,07,04,09,41,19.50
2017,07,04,09,42,19.50
2017,07,04,09,43,19.50
2017,07,04,09,44,19.50
2017,07,04,09,45,19.60
2017,07,04,09,46,19.60
2017,07,04,09,47,19.60
2017,07,04,09,48,19.70
2017,07,04,09,49,19.70
2017,07,04,09,50,19.80
2017,07,04,09,51,19.90
2017,07,04,09,52,19.90
2017,07,04,09,53,19.80
2017,07,04,09,54,19.80
2017,07,04,09,55,19.80
2017,07,04,09,56,19.80
2017,07,04,09,57,19.80
2017,07,04,09,58,19.80
2017,07,04,09,59,19.70
2017,07,04,10,00,19.80
2017,07,04,10,01,19.70
2017,07,04,10,02,19.70
2017,07,04,10,03,19.60
2017,07,04,10,04,19.60
2017,07,04,10,05,19.60
2017,07,04,10,06,19.70
2017,07,04,10,07,19.80
2017,07,04,10,08,19.80
2017,07,04,10,09,19.80
2017,07,04,10,10,19.80
2017,07,04,10,11,19.70
2017,07,04,10,12,19.70
2017,07,04,10,13,19.60
2017,07,04,10,14,19.50
2017,07,04,10,15,19.50
2017,07,04,10,16,19.50
2017,07,04,10,17,19.50
2017,07,04,10,18,19.40
2017,07,04,10,19,19.50
2017,07,04,10,20,19.50
2017,07,04,10,21,19.70
2017,07,04,10,22,19.70
2017,07,04,10,23,19.80
2017,07,04,10,24,19.90
2017,07,04,10,25,19.80
2017,07,04,10,26,19.70
2017,07,04,10,27,19.60
2017,07,04,10,28,19.50
2017,07,04,10,29,19.50
2017,07,04,10,30,19.40
2017,07,04,10,31,19.30
2017,07,04,10,32,19.40
2017,07,04,10,33,19.40
2017,07,04,10,34,19.50
2017,07,04,10,35,19.50
2017,07,04,10,36,19.60
2017,07,04,10,37,19.80
2017,07,04,10,38,19.90
2017,07,04,10,39,20.10
2017,07,04,10,40,20.30
2017,07,04,10,41,20.40
2017,07,04,10,42,20.40
2017,07,04,10,43,20.40
2017,07,04,10,44,20.40
2017,07,04,10,45,20.40
2017,07,04,10,46,20.40
2017,07,04,10,47,20.40
2017,07,04,10,48,20.30
2017,07,04,10,49,20.20
2017,07,04,10,50,20.20
2017,07,04,10,51,20.20
2017,07,04,10,52,20.20
2017,07,04,10,53,20.20
2017,07,04,10,54,20.20
2017,07,04,10,55,20.20
2017,07,04,10,56,20.20
2017,07,04,10,57,20.40
2017,07,04,10,58,20.50
2017,07,04,10,59,20.50
2017,07,04,11,00,20.60
2017,07,04,11,01,20.70
2017,07,04,11,02,20.70
2017,07,04,11,03,20.80
2017,07,04,11,04,20.90
2017,07,04,11,05,21.00
2017,07,04,11,06,21.10
2017,07,04,11,07,21.20
2017,07,04,11,08,21.30
2017,07,04,11,09,21.30
2017,07,04,11,10,21.40
2017,07,04,11,11,21.60
2017,07,04,11,12,21.50
2017,07,04,11,13,21.40
2017,07,04,11,14,21.30
2017,07,04,11,15,21.30
2017,07,04,11,16,21.30
2017,07,04,11,17,21.30
2017,07,04,11,18,21.20
2017,07,04,11,19,21.10
2017,07,04,11,20,21.20
2017,07,04,11,21,21.20
2017,07,04,11,22,21.20
2017,07,04,11,23,21.20
2017,07,04,11,24,21.00
2017,07,04,11,25,20.90
2017,07,04,11,26,20.70
2017,07,04,11,27,20.70
2017,07,04,11,28,20.50
2017,07,04,11,29,20.40
2017,07,04,11,30,20.50
2017,07,04,11,31,20.60
2017,07,04,11,32,20.60
2017,07,04,11,33,20.70
2017,07,04,11,34,20.80
2017,07,04,11,35,20.80
2017,07,04,11,36,20.80
2017,07,04,11,37,21.00
2017,07,04,11,38,21.00
2017,07,04,11,39,21.00
2017,07,04,11,40,21.10
2017,07,04,11,41,21.10
2017,07,04,11,42,21.00
2017,07,04,11,43,20.90
2017,07,04,11,44,20.80
2017,07,04,11,45,20.60
2017,07,04,11,46,20.40
2017,07,04,11,47,20.20
2017,07,04,11,48,20.20
2017,07,04,11,49,20.30
2017,07,04,11,50,20.40
2017,07,04,11,51,20.50
2017,07,04,11,52,20.50
2017,07,04,11,53,20.70
2017,07,04,11,54,20.80
2017,07,04,11,55,20.90
2017,07,04,11,56,20.90
2017,07,04,11,57,20.80
2017,07,04,11,58,20.70
2017,07,04,11,59,20.60
2017,07,04,12,00,20.50
2017,07,04,12,01,20.50
2017,07,04,12,02,20.50
2017,07,04,12,03,20.50
2017,07,04,12,04,20.60
2017,07,04,12,05,20.60
2017,07,04,12,06,20.60
2017,07,04,12,07,20.50
2017,07,04,12,08,20.50
2017,07,04,12,09,20.40
2017,07,04,12,10,20.30
2017,07,04,12,11,20.30
2017,07,04,12,12,20.30
2017,07,04,12,13,20.30
2017,07,04,12,14,20.20
2017,07,04,12,15,20.20
2017,07,04,12,16,20.20
2017,07,04,12,17,20.40
2017,07,04,12,18,20.50
2017,07,04,12,19,20.60
2017,07,04,12,20,20.70
2017,07,04,12,21,20.80
2017,07,04,12,22,20.90
2017,07,04,12,23,21.00
2017,07,04,12,24,21.10
2017,07,04,12,25,21.30
2017,07,04,12,26,21.40
2017,07,04,12,27,21.40
2017,07,04,12,28,21.50
2017,07,04,12,29,21.60
2017,07,04,12,30,21.60
2017,07,04,12,31,21.60
2017,07,04,12,32,21.70
2017,07,04,12,33,21.80
2017,07,04,12,34,21.80
2017,07,04,12,35,21.70
2017,07,04,12,36,21.50
2017,07,04,12,37,21.40
2017,07,04,12,38,21.10
2017,07,04,12,39,20.90
2017,07,04,12,40,20.90
2017,07,04,12,41,20.90
2017,07,04,12,42,21.00
2017,07,04,12,43,21.10
2017,07,04,12,44,21.20
2017,07,04,12,45,21.30
2017,07,04,12,46,21.40
2017,07,04,12,47,21.50
2017,07,04,12,48,21.60
2017,07,04,12,49,21.60
2017,07,04,12,50,21.60
2017,07,04,12,51,21.60
2017,07,04,12,52,21.80
2017,07,04,12,53,21.90
2017,07,04,12,54,21.90
2017,07,04,12,55,21.90
2017,07,04,12,56,22.00
2017,07,04,12,57,21.90
2017,07,04,12,58,21.70
2017,07,04,12,59,21.60
2017,07,04,13,00,21.60
2017,07,04,13,01,21.60
2017,07,04,13,02,21.70
2017,07,04,13,03,21.80
2017,07,04,13,04,22.00
2017,07,04,13,05,22.10
2017,07,04,13,06,22.20
2017,07,04,13,07,22.20
2017,07,04,13,08,22.40
2017,07,04,13,09,22.40
2017,07,04,13,10,22.50
2017,07,04,13,11,22.30
2017,07,04,13,12,22.10
2017,07,04,13,13,22.00
2017,07,04,13,14,21.90
2017,07,04,13,15,21.90
2017,07,04,13,16,21.80
2017,07,04,13,17,21.70
2017,07,04,13,18,21.60
2017,07,04,13,19,21.50
2017,07,04,13,20,21.40
2017,07,04,13,21,21.40
2017,07,04,13,22,21.40
2017,07,04,13,23,21.40
2017,07,04,13,24,21.30
2017,07,04,13,25,21.30
2017,07,04,13,26,21.30
2017,07,04,13,27,21.30
2017,07,04,13,28,21.30
2017,07,04,13,29,21.30
2017,07,04,13,30,21.30
2017,07,04,13,31,21.30
2017,07,04,13,32,21.30
2017,07,04,13,33,21.30
2017,07,04,13,34,21.20
2017,07,04,13,35,21.20
2017,07,04,13,36,21.20
2017,07,04,13,37,21.30
2017,07,04,13,38,21.20
2017,07,04,13,39,21.10
2017,07,04,13,40,21.00
2017,07,04,13,41,21.00
2017,07,04,13,42,21.00
2017,07,04,13,43,21.10
2017,07,04,13,44,21.30
2017,07,04,13,45,21.30
2017,07,04,13,46,21.30
2017,07,04,13,47,21.30
2017,07,04,13,48,21.30
2017,07,04,13,49,21.10
2017,07,04,13,50,21.00
2017,07,04,13,51,21.00
2017,07,04,13,52,21.20
2017,07,04,13,53,21.40
2017,07,04,13,54,21.60
2017,07,04,13,55,21.60
2017,07,04,13,56,21.60
2017,07,04,13,57,21.60
2017,07,04,13,58,21.50
2017,07,04,13,59,21.40
2017,07,04,14,00,21.40
2017,07,04,14,01,21.40
2017,07,04,14,02,21.30
2017,07,04,14,03,21.40
2017,07,04,14,04,21.30
2017,07,04,14,05,21.40
2017,07,04,14,06,21.40
2017,07,04,14,07,21.40
2017,07,04,14,08,21.40
2017,07,04,14,09,21.30
2017,07,04,14,10,21.40
2017,07,04,14,11,21.60
2017,07,04,14,12,21.60
2017,07,04,14,13,21.60
2017,07,04,14,14,21.60
2017,07,04,14,15,21.60
2017,07,04,14,16,21.60
2017,07,04,14,17,21.60
2017,07,04,14,18,21.70
2017,07,04,14,19,21.80
2017,07,04,14,20,21.90
2017,07,04,14,21,21.90
2017,07,04,14,22,21.80
2017,07,04,14,23,21.60
2017,07,04,14,24,21.60
2017,07,04,14,25,21.60
2017,07,04,14,26,21.70
2017,07,04,14,27,21.80
2017,07,04,14,28,21.80
2017,07,04,14,29,21.80
2017,07,04,14,30,22.00
2017,07,04,14,31,22.00
2017,07,04,14,32,22.10
2017,07,04,14,33,22.10
2017,07,04,14,34,22.00
2017,07,04,14,35,22.00
2017,07,04,14,36,22.00
2017,07,04,14,37,22.10
2017,07,04,14,38,22.10
2017,07,04,14,39,22.00
2017,07,04,14,40,21.90
2017,07,04,14,41,21.90
2017,07,04,14,42,22.00
2017,07,04,14,43,22.00
2017,07,04,14,44,22.10
2017,07,04,14,45,22.20
2017,07,04,14,46,22.20
2017,07,04,14,47,22.00
2017,07,04,14,48,21.90
2017,07,04,14,49,21.90
2017,07,04,14,50,22.00
2017,07,04,14,51,22.00
2017,07,04,14,52,22.00
2017,07,04,14,53,22.00
2017,07,04,14,54,21.90
2017,07,04,14,55,21.80
2017,07,04,14,56,21.80
2017,07,04,14,57,21.80
2017,07,04,14,58,21.80
2017,07,04,14,59,21.70
2017,07,04,15,00,21.60
2017,07,04,15,01,21.60
2017,07,04,15,02,21.60
2017,07,04,15,03,21.60
2017,07,04,15,04,21.60
2017,07,04,15,05,21.60
2017,07,04,15,06,21.60
2017,07,04,15,07,21.60
2017,07,04,15,08,21.60
2017,07,04,15,09,21.50
2017,07,04,15,10,21.30
2017,07,04,15,11,21.30
2017,07,04,15,12,21.30
2017,07,04,15,13,21.40
2017,07,04,15,14,21.40
2017,07,04,15,15,21.40
2017,07,04,15,16,21.30
2017,07,04,15,17,21.30
2017,07,04,15,18,21.40
2017,07,04,15,19,21.40
2017,07,04,15,20,21.60
2017,07,04,15,21,21.60
2017,07,04,15,22,21.60
2017,07,04,15,23,21.60
2017,07,04,15,24,21.60
2017,07,04,15,25,21.60
2017,07,04,15,26,21.60
2017,07,04,15,27,21.60
2017,07,04,15,28,21.60
2017,07,04,15,29,21.60
2017,07,04,15,30,21.60
2017,07,04,15,31,21.70
2017,07,04,15,32,21.70
2017,07,04,15,33,21.70
2017,07,04,15,34,21.70
2017,07,04,15,35,21.80
2017,07,04,15,36,21.90
2017,07,04,15,37,22.00
2017,07,04,15,38,22.00
2017,07,04,15,39,21.90
2017,07,04,15,40,21.80
2017,07,04,15,41,21.70
2017,07,04,15,42,21.60
2017,07,04,15,43,21.60
2017,07,04,15,44,21.60
2017,07,04,15,45,21.70
2017,07,04,15,46,21.70
2017,07,04,15,47,21.80
2017,07,04,15,48,21.80
2017,07,04,15,49,21.80
2017,07,04,15,50,21.60
2017,07,04,15,51,21.60
2017,07,04,15,52,21.70
2017,07,04,15,53,21.80
2017,07,04,15,54,21.90
2017,07,04,15,55,22.00
2017,07,04,15,56,22.00
2017,07,04,15,57,21.90
2017,07,04,15,58,21.90
2017,07,04,15,59,21.90
2017,07,04,16,00,21.70
2017,07,04,16,01,21.60
2017,07,04,16,02,21.50
2017,07,04,16,03,21.60
2017,07,04,16,04,21.60
2017,07,04,16,05,21.50
2017,07,04,16,06,21.40
2017,07,04,16,07,21.30
2017,07,04,16,08,21.30
2017,07,04,16,09,21.30
2017,07,04,16,10,21.30
2017,07,04,16,11,21.30
2017,07,04,16,12,21.30
2017,07,04,16,13,21.30
2017,07,04,16,14,21.30
2017,07,04,16,15,21.30
2017,07,04,16,16,21.20
2017,07,04,16,17,21.20
2017,07,04,16,18,21.30
2017,07,04,16,19,21.30
2017,07,04,16,20,21.30
2017,07,04,16,21,21.30
2017,07,04,16,22,21.30
2017,07,04,16,23,21.30
2017,07,04,16,24,21.40
2017,07,04,16,25,21.40
2017,07,04,16,26,21.30
2017,07,04,16,27,21.30
2017,07,04,16,28,21.30
2017,07,04,16,29,21.40
2017,07,04,16,30,21.40
2017,07,04,16,31,21.30
2017,07,04,16,32,21.30
2017,07,04,16,33,21.30
2017,07,04,16,34,21.30
2017,07,04,16,35,21.30
2017,07,04,16,36,21.20
2017,07,04,16,37,21.30
2017,07,04,16,38,21.30
2017,07,04,16,39,21.30
2017,07,04,16,40,21.30
2017,07,04,16,41,21.30
2017,07,04,16,42,21.30
2017,07,04,16,43,21.40
2017,07,04,16,44,21.40
2017,07,04,16,45,21.50
2017,07,04,16,46,21.60
2017,07,04,16,47,21.60
2017,07,04,16,48,21.60
2017,07,04,16,49,21.60
2017,07,04,16,50,21.60
2017,07,04,16,51,21.60
2017,07,04,16,52,21.60
2017,07,04,16,53,21.60
2017,07,04,16,54,21.60
2017,07,04,16,55,21.60
2017,07,04,16,56,21.60
2017,07,04,16,57,21.60
2017,07,04,16,58,21.60
2017,07,04,16,59,21.60
2017,07,04,17,00,21.60
2017,07,04,17,01,21.60
2017,07,04,17,02,21.60
2017,07,04,17,03,21.60
2017,07,04,17,04,21.60
2017,07,04,17,05,21.60
2017,07,04,17,06,21.60
2017,07,04,17,07,21.60
2017,07,04,17,08,21.60
2017,07,04,17,09,21.60
2017,07,04,17,10,21.60
2017,07,04,17,11,21.60
2017,07,04,17,12,21.60
2017,07,04,17,13,21.60
2017,07,04,17,14,21.70
2017,07,04,17,15,21.80
2017,07,04,17,16,21.90
2017,07,04,17,17,21.90
2017,07,04,17,18,22.00
2017,07,04,17,19,22.10
2017,07,04,17,20,22.20
2017,07,04,17,21,22.20
2017,07,04,17,22,22.20
2017,07,04,17,23,22.20
2017,07,04,17,24,22.10
2017,07,04,17,25,22.10
2017,07,04,17,26,22.00
2017,07,04,17,27,21.90